CDT,Max TemperatureF,Mean TemperatureF,Min TemperatureF,Max Dew PointF,MeanDew PointF,Min DewpointF,Max Humidity, Mean Humidity, Min Humidity, Max Sea Level PressureIn, Mean Sea Level PressureIn, Min Sea Level PressureIn, Max VisibilityMiles, Mean VisibilityMiles, Min VisibilityMiles, Max Wind SpeedMPH, Mean Wind SpeedMPH, Max Gust SpeedMPH,PrecipitationIn, CloudCover, Events, WindDirDegrees
2013-8-1,81,71,60,60,56,51,97,67,36,30.02,30.00,29.95,10,10,10,20,6,25,T,2,Rain,289
2013-8-2,86,75,63,66,61,56,87,68,48,29.97,29.90,29.87,10,10,10,13,6,18,T,7,Rain-Thunderstorm,305
2013-8-3,82,71,60,58,52,46,78,54,30,30.14,30.07,29.99,10,10,10,15,7,22,0.00,3,,360
2013-8-4,80,68,56,59,54,50,86,62,37,30.22,30.17,30.12,10,10,10,12,5,17,0.00,4,,70
2013-8-5,74,66,57,65,60,54,93,79,64,30.13,29.98,29.88,10,10,5,26,7,31,0.16,7,Rain,180
2013-8-6,84,76,67,72,68,64,97,83,69,29.92,29.87,29.82,10,6,0,20,6,25,1.12,7,Fog-Rain-Thunderstorm,207
2013-8-7,87,77,66,72,67,62,100,73,46,29.97,29.85,29.79,10,8,3,16,7,21,0.00,4,,282
2013-8-8,80,72,63,64,60,52,93,73,52,30.05,30.01,29.99,10,10,7,15,6,21,0.00,6,,84
2013-8-9,83,71,58,64,60,55,93,72,51,30.08,30.02,30.00,10,10,10,12,5,15,0.00,6,,287
2013-8-10,81,70,59,60,56,52,90,65,39,30.16,30.13,30.09,10,10,5,14,5,17,0.00,2,,333
2013-8-11,80,68,55,68,61,53,97,76,54,30.17,30.11,30.04,10,10,7,13,2,21,0.05,5,Fog-Rain,216
2013-8-12,84,74,64,68,65,60,93,74,54,30.04,29.97,29.90,10,10,10,14,7,18,T,6,,277
2013-8-13,73,65,57,58,49,44,84,61,38,30.18,30.10,29.98,10,10,10,18,10,23,0.00,3,,14
2013-8-14,76,63,50,53,50,47,96,67,38,30.25,30.20,30.16,10,10,10,12,3,15,0.00,2,,17
2013-8-15,78,66,53,56,52,50,89,66,43,30.20,30.16,30.12,10,10,10,12,5,14,0.00,6,,224
2013-8-16,83,68,53,56,53,50,93,64,34,30.21,30.18,30.15,10,10,10,12,3,15,0.00,2,,91
2013-8-17,81,68,54,57,54,51,93,66,39,30.26,30.22,30.18,10,10,10,10,4,15,0.00,1,,104
2013-8-18,83,69,54,60,56,52,93,67,40,30.24,30.18,30.12,10,10,9,10,2,16,0.00,1,,137
2013-8-19,85,71,56,63,60,54,93,70,47,30.14,30.10,30.04,10,9,5,13,4,17,0.00,4,,226
2013-8-20,87,75,62,65,63,60,93,69,45,30.12,30.07,30.04,10,9,3,20,7,23,0.00,2,Fog,185
2013-8-21,90,78,66,69,65,64,93,69,44,30.08,30.04,29.96,10,9,7,18,8,23,0.00,4,,195
2013-8-22,75,70,64,70,67,64,100,87,73,30.20,30.08,29.99,10,8,2,25,7,31,1.39,7,Fog-Rain-Thunderstorm,253
2013-8-23,82,71,59,63,57,50,97,67,36,30.19,30.16,30.13,10,9,2,15,6,20,0.00,0,Fog,101
2013-8-24,84,71,58,67,62,54,93,72,51,30.27,30.22,30.18,10,10,10,15,7,18,0.00,2,,160
2013-8-25,89,77,65,70,65,59,90,67,44,30.26,30.20,30.14,10,10,10,17,9,22,0.00,1,,196
2013-8-26,90,78,66,72,68,63,93,72,50,30.15,30.09,30.00,10,10,7,15,6,26,0.00,4,,206
2013-8-27,94,83,72,73,71,69,93,70,46,30.00,29.92,29.84,10,10,10,18,8,24,0.00,4,,209
2013-8-28,88,79,70,72,70,66,84,70,55,30.05,29.96,29.85,10,10,8,12,5,17,0.00,5,,45
2013-8-29,86,77,67,70,68,65,93,72,51,30.12,30.06,29.99,10,5,0,12,5,15,T,4,Fog,152
2013-8-30,96,82,67,74,70,66,97,70,43,29.98,29.87,29.75,10,8,3,24,7,29,0.20,3,Rain-Thunderstorm,180
2013-8-31,82,75,67,70,67,64,93,79,65,29.89,29.84,29.81,10,10,10,14,6,20,T,5,Rain-Thunderstorm,71